This is the latest recevied weather packets stored in our database for station/object N4JTC. If no packets are shown the sender has not sent any weather packets the latest 10 day(s).
| Time | Temp. | Humidity | Pressure | Rain* | Wind** | Luminosity | Snow |
|---|---|---|---|---|---|---|---|
| 1777510503 | 24.44° C | 88% | 1014.7 hPa | 0 mm | - | 0 W/m² | - |
| 1777509903 | 24.44° C | 88% | 1014.5 hPa | 0 mm | - | 0 W/m² | - |
| 1777509603 | 24.44° C | 88% | 1014.3 hPa | 0 mm | - | 0 W/m² | - |
| 1777509303 | 24.44° C | 88% | 1014.2 hPa | 0 mm | - | 0 W/m² | - |
| 1777509003 | 24.44° C | 88% | 1014.4 hPa | 0 mm | - | 0 W/m² | - |
| 1777508703 | 24.44° C | 88% | 1014.3 hPa | 0 mm | - | 0 W/m² | - |
| 1777508403 | 24.44° C | 88% | 1014.1 hPa | 0 mm | - | 0 W/m² | - |
| 1777508103 | 24.44° C | 88% | 1014.1 hPa | 0 mm | - | 0 W/m² | - |
| 1777507803 | 24.44° C | 88% | 1014 hPa | 0 mm | - | 2 W/m² | - |
| 1777507503 | 24.44° C | 88% | 1013.8 hPa | 0 mm | - | 3 W/m² | - |
| 1777507203 | 24.44° C | 88% | 1013.9 hPa | 0 mm | - | 7 W/m² | - |
| 1777506903 | 24.44° C | 88% | 1013.7 hPa | 0 mm | - | 9 W/m² | - |
| 1777506302 | 24.44° C | 88% | 1013.6 hPa | 0 mm | - | 16 W/m² | - |
| 1777505703 | 24.44° C | 88% | 1013.3 hPa | 0 mm | - | 23 W/m² | - |
| 1777505103 | 24.44° C | 87% | 1013.1 hPa | 0 mm | - | 32 W/m² | - |
| 1777504817 | 24.44° C | 88% | 1013.1 hPa | 0 mm | - | 43 W/m² | - |
| 1777504503 | 24.44° C | 88% | 1013.2 hPa | 0 mm | - | 54 W/m² | - |
| 1777503903 | 24.44° C | 87% | 1013 hPa | 0 mm | - | 75 W/m² | - |
| 1777503603 | 24.44° C | 87% | 1013 hPa | 0 mm | - | 90 W/m² | - |
| 1777503303 | 24.44° C | 86% | 1012.8 hPa | 0 mm | - | 98 W/m² | - |
| 1777503003 | 24.44° C | 86% | 1012.7 hPa | 0 mm | - | 112 W/m² | - |
| 1777502703 | 25° C | 86% | 1012.7 hPa | 0 mm | - | 147 W/m² | - |
| 1777502402 | 25° C | 85% | 1012.8 hPa | 0 mm | - | 173 W/m² | - |
| 1777502103 | 25° C | 85% | 1012.7 hPa | 0 mm | - | 227 W/m² | - |
| 1777501804 | 25° C | 86% | 1012.8 hPa | 0 mm | - | 249 W/m² | - |
* Rain latest hour (hover to see other rain measurements)
** Current wind speed in m/s (hover to see current wind gust speed)